This is the latest recevied weather packets stored in our database for station/object K7TSD. If no packets are shown the sender has not sent any weather packets the latest 10 day(s).
| Time | Temp. | Humidity | Pressure | Rain* | Wind** | Luminosity | Snow |
|---|---|---|---|---|---|---|---|
| 1778076166 | 1.67° C | 51% | 1015.7 hPa | 0 mm | - | 186 W/m² | - |
| 1778075863 | 2.22° C | 51% | 1015.8 hPa | 0 mm | - | 165 W/m² | - |
| 1778075559 | 2.22° C | 52% | 1015.8 hPa | 0 mm | - | 154 W/m² | - |
| 1778075256 | 2.22° C | 51% | 1015.8 hPa | 0 mm | - | 131 W/m² | - |
| 1778074953 | 1.67° C | 51% | 1016 hPa | 0 mm | - | 127 W/m² | - |
| 1778074650 | 1.67° C | 52% | 1015.8 hPa | 0 mm | - | 114 W/m² | - |
| 1778074346 | 1.67° C | 54% | 1015.8 hPa | 0 mm | - | 68 W/m² | - |
| 1778074044 | 1.11° C | 56% | 1015.7 hPa | 0 mm | - | 35 W/m² | - |
| 1778073741 | 1.11° C | 56% | 1015.7 hPa | 0 mm | - | 34 W/m² | - |
| 1778073439 | 1.11° C | 55% | 1015.9 hPa | 0 mm | - | 33 W/m² | - |
| 1778073134 | 0.56° C | 57% | 1015.8 hPa | 0 mm | - | 31 W/m² | - |
| 1778072831 | 0.56° C | 59% | 1015.7 hPa | 0 mm | - | 30 W/m² | - |
| 1778072528 | 0° C | 59% | 1015.8 hPa | 0 mm | - | 29 W/m² | - |
| 1778072227 | 0° C | 61% | 1015.6 hPa | 0 mm | - | 28 W/m² | - |
| 1778071924 | -1.11° C | 63% | 1015.7 hPa | 0 mm | - | 26 W/m² | - |
| 1778071622 | -1.11° C | 62% | 1015.6 hPa | 0 mm | - | 24 W/m² | - |
| 1778071320 | -1.67° C | 63% | 1015.3 hPa | 0 mm | - | 24 W/m² | - |
| 1778071017 | -2.22° C | 66% | 1015.6 hPa | 0 mm | - | 21 W/m² | - |
| 1778070715 | -2.22° C | 65% | 1015.4 hPa | 0 mm | - | 19 W/m² | - |
| 1778070412 | -2.78° C | 65% | 1015.4 hPa | 0 mm | - | 17 W/m² | - |
| 1778070109 | -2.78° C | 65% | 1015.3 hPa | 0 mm | - | 16 W/m² | - |
| 1778069807 | -3.33° C | 66% | 1015.4 hPa | 0 mm | - | 12 W/m² | - |
| 1778069503 | -3.33° C | 67% | 1015.4 hPa | 0 mm | - | 9 W/m² | - |
| 1778069201 | -3.33° C | 67% | 1015.3 hPa | 0 mm | - | 9 W/m² | - |
| 1778068898 | -3.33° C | 67% | 1015.3 hPa | 0 mm | - | 6 W/m² | - |
* Rain latest hour (hover to see other rain measurements)
** Current wind speed in m/s (hover to see current wind gust speed)